Voltar ao catálogo

STARLINK-11366

AtivoComunicaçõesVLEO
NORAD 61693·PAYLOAD·🇺🇸 United States

Lançado Oct 30, 2024 de Vandenberg Space Force Base

Loading…

Próximas Passagens (próximas 24 horas)

TLE

AtualizadoSource: CelesTrak SupGP

Época: Sep 14, 2026, 22:30 UTC

1 61693C 24195G   26257.93798611 -.00034582  00000+0 -28473-3 0  2579
2 61693  53.1573 173.3453 0001196  93.4910  30.2655 15.69737836    17

Acompanhe STARLINK-11366 em tempo real com AllMySat

Download on the App Store